カタログに戻る

YAM-3

運用中通信PO
NORAD 48915·PAYLOAD·🇺🇸 United States

打ち上げ Jun 30, 2021 から Cape Canaveral Space Force Station

Loading…

次のパス (今後24時間)

TLE

最新Source: Space-Track

元期: Sep 14, 2026, 12:16 UTC

1 48915U 21059AN  26257.51158340  .00009535  00000-0  17001-3 0  9997
2 48915  97.6977  90.4395 0005976  48.2355 311.9405 15.50310688290829

AllMySatでYAM-3をリアルタイム追跡

Download on the App Store